Location: Unspecified
(42.2730°N, 83.7130°W)
Time: 14:51:00
(UTC+00:00)

Meteor 1-5 Rocket - Pass Details

Date: 14 December 2025
Orbit: 788 x 913 km, 81.2° (Epoch: 17 January)

Event Time Altitude Azimuth Distance (km) Brightness Sun altitude
Rises 22:45:45 0° 354° (N) 3,316 7.1 -7.8°
Reaches altitude 10° 22:48:09 10° 358° (N) 2,394 6.3 -8.2°
Maximum altitude 22:53:28 57° 77° (ENE) 963 4.2 -9.1°
Drops below altitude 10° 22:58:55 10° 156° (SSE) 2,451 6.6 -10.0°
Sets 23:01:24 0° 160° (SSE) 3,402 7.4 -10.5°
